Regional Weather Roundup
Issued by NWS

Home | Current Version | Previous Version | Graphics & Text | Print | Product List | Glossary On
Versions: 1 2 3 4 5 6 7 8 9 10 11 12 13 14 15 16 17 18 19 20 21 22 23 24 25 26 27 28 29 30 31 32 33 34 35 36 37 38 39 40 41 42 43 44 45 46 47 48 49 50
000
ASUS43 KLSX 191207
RWRMO

WEATHER SUMMARY FOR MISSOURI
NATIONAL WEATHER SERVICE SPRINGFIELD MO
700 AM CDT TUE SEP 19 2017

NOTE: "FAIR" INDICATES FEW OR NO CLOUDS BELOW 12,000 FEET WITH NO
       SIGNIFICANT WEATHER AND/OR OBSTRUCTIONS TO VISIBILITY.
       CURRENT SKY AND/OR WEATHER CONDITIONS ARE NOT AVAILABLE FOR
       CHILLICOTHE AND FARMINGTON.

MOZ001>031-035>038-043-044-053-054-191300-
...NORTHERN AND WESTERN MISSOURI...

CITY           SKY/WX    TMP DP  RH WIND       PRES   REMARKS
KANSAS CTY INT CLOUDY    66  66 100 S9        29.88F
6HR MIN TEMP:  66; 6HR MAX TEMP:  70; 6HR PCP:  1.17;

KANSAS C DTWN    N/A     69  68  96 E3        29.87F
6HR MIN TEMP:  69; 6HR MAX TEMP:  70; 6HR PCP:  0.01;

LEE`S SUMMIT   MOCLDY    66  66 100 CALM      29.89F
6HR MIN TEMP:  65; 6HR MAX TEMP:  67; 6HR PCP: TRACE;

ST JOSEPH      CLEAR     65  65 100 CALM      29.87S FOG
6HR MIN TEMP:  65; 6HR MAX TEMP:  67;

CHILLICOTHE      N/A     64  64 100 S3        29.92R
6HR MIN TEMP:  61; 6HR MAX TEMP:  65;

KIRKSVILLE     FOG       64  64 100 E5        29.93F VSB 1/4
6HR MIN TEMP:  62; 6HR MAX TEMP:  64;


$$
MOZ066>068-077>081-088>096-101>105-191300-
...SOUTHWEST MISSOURI...

CITY           SKY/WX    TMP DP  RH WIND       PRES   REMARKS
SPRINGFIELD    CLEAR     67  67 100 SE7       29.94S
6HR MIN TEMP:  64; 6HR MAX TEMP:  69;

JOPLIN         MOCLDY    67  67 100 S6        29.92R
6HR MIN TEMP:  65; 6HR MAX TEMP:  69;

BRANSON        PTCLDY    64  64 100 SE3       29.97S FOG

$$
MOZ032>034-039>042-045>050-055>058-069>072-191300-
...CENTRAL MISSOURI...

CITY           SKY/WX    TMP DP  RH WIND       PRES   REMARKS
COLUMBIA       FOG       64  64 100 SE5       29.94S VSB 1/4
6HR MIN TEMP:  63; 6HR MAX TEMP:  67;

JEFFERSON CITY FOG       63  62  97 CALM      29.93S VSB 1/4
6HR MIN TEMP:  63; 6HR MAX TEMP:  67;

ROLLA          CLEAR     63  63 100 SE6       29.96R FOG
6HR MIN TEMP:  61; 6HR MAX TEMP:  67;

SEDALIA        CLEAR     63  63 100 S5        29.94R FOG
6HR MIN TEMP:  62; 6HR MAX TEMP:  64;

WHITEMAN AFB   MOCLDY    64  64 100 SW6       29.92R
WARRENSBURG    TSTM      63  63 100 SE6       29.91R
OSAGE BEACH    FOG       63  63 100 CALM      29.94S VSB<1/4

$$
MOZ051-052-059>065-191300-
...EAST CENTRAL MISSOURI...

CITY           SKY/WX    TMP DP  RH WIND       PRES   REMARKS
ST LOUIS INTL  FOG       66  66 100 CALM      29.95R VSB 1/2
6HR MIN TEMP:  66; 6HR MAX TEMP:  70;

SPIRIT OF STL  FOG       65  65 100 CALM      29.94R VSB<1/4
6HR MIN TEMP:  65; 6HR MAX TEMP:  68;

ST CHARLES     FOG       65  65 100 CALM      29.94R VSB 1/4
6HR MIN TEMP:  65; 6HR MAX TEMP:  68;


$$
MOZ072>076-082>087-097>100-106>115-191300-
...SOUTH CENTRAL AND SOUTHEAST MISSOURI...

CITY           SKY/WX    TMP DP  RH WIND       PRES   REMARKS
CAPE GIRARDEAU CLOUDY    65  64  97 CALM      29.94R FOG
6HR MIN TEMP:  64; 6HR MAX TEMP:  71; 6HR PCP:  0.32;

FARMINGTON     FOG       63  63 100 SE3       29.97R VSB 1/4
6HR MIN TEMP:  63; 6HR MAX TEMP:  69;

POPLAR BLUFF   CLEAR     66  66 100 CALM      29.94R FOG
6HR MIN TEMP:  65; 6HR MAX TEMP:  71;

WEST PLAINS    FOG       61  60  97 CALM      29.98S VSB 1/4
6HR MIN TEMP:  61; 6HR MAX TEMP:  67;


$$



USA.gov is the U.S. government's official web portal to all federal, state and local government web resources and services.